This is the latest recevied weather packets stored in our database for station/object N3OZD-10. If no packets are shown the sender has not sent any weather packets the latest 10 day(s).
| Time | Temp. | Humidity | Pressure | Rain* | Wind** | Luminosity | Snow |
|---|---|---|---|---|---|---|---|
| 1777746750 | 13.89° C | 41% | 1012.7 hPa | 0 mm | - | - | - |
| 1777746451 | 13.89° C | 42% | 1012.8 hPa | 0 mm | - | - | - |
| 1777746150 | 13.89° C | 39% | 1012.8 hPa | 0 mm | - | - | - |
| 1777745853 | 13.89° C | 46% | 1012.9 hPa | 0 mm | - | - | - |
| 1777745555 | 13.89° C | 41% | 1013 hPa | 0 mm | - | - | - |
| 1777745253 | 13.89° C | 41% | 1013.1 hPa | 0 mm | - | - | - |
| 1777744953 | 13.89° C | 40% | 1013 hPa | 0.25 mm | - | - | - |
| 1777744650 | 13.89° C | 41% | 1013.1 hPa | 0.25 mm | - | - | - |
| 1777744351 | 13.33° C | 41% | 1013.2 hPa | 0.25 mm | - | - | - |
| 1777744052 | 13.89° C | 42% | 1013.1 hPa | 0.25 mm | - | - | - |
| 1777743752 | 13.33° C | 42% | 1013.1 hPa | 0.25 mm | - | - | - |
| 1777743452 | 13.33° C | 43% | 1013 hPa | 0.25 mm | - | - | - |
| 1777743156 | 13.33° C | 41% | 1013.1 hPa | 0.25 mm | - | - | - |
| 1777742852 | 13.33° C | 47% | 1013.1 hPa | 0.25 mm | - | - | - |
| 1777742552 | 12.78° C | 45% | 1013.1 hPa | 0.25 mm | - | - | - |
| 1777742250 | 13.33° C | 44% | 1013.1 hPa | 0.25 mm | - | - | - |
| 1777741952 | 12.78° C | 49% | 1013.2 hPa | 0.25 mm | - | - | - |
| 1777741654 | 12.22° C | 48% | 1013.4 hPa | 0.25 mm | - | - | - |
| 1777741352 | 12.78° C | 48% | 1013.4 hPa | 0 mm | - | - | - |
| 1777741054 | 13.33° C | 50% | 1013.6 hPa | 0 mm | - | - | - |
| 1777740751 | 13.33° C | 54% | 1013.6 hPa | 0 mm | - | - | - |
| 1777740453 | 12.78° C | 52% | 1013.6 hPa | 0 mm | - | - | - |
| 1777740154 | 12.78° C | 50% | 1013.6 hPa | 0 mm | - | - | - |
| 1777739852 | 12.78° C | 50% | 1013.6 hPa | 0 mm | - | - | - |
| 1777739250 | 12.22° C | 50% | 1013.7 hPa | 0 mm | - | - | - |
* Rain latest hour (hover to see other rain measurements)
** Current wind speed in m/s (hover to see current wind gust speed)